Chubbuck, ID

7:19 PM MST on February 09, 2016 (GMT -0700)
Pocatello Regional

Weather History for KPIH - May, 2011

Change the Weather History Date:

Tuesday, May 31, 2011

  Actual Average Record
Temperature  
Mean Temperature 56 °F 58 °F  
Max Temperature 70 °F 72 °F 90 °F (1997)
Min Temperature 42 °F 43 °F 27 °F (1978)
Degree Days  
Heating Degree Days 9 8  
Month to date heating degree days 488 353  
Since 1 July heating degree days 7187 7047  
Cooling Degree Days 0 0  
Month to date cooling degree days 0 5  
Year to date cooling degree days 0 5  
Growing Degree Days 6 (Base 50)    
Moisture  
Dew Point 36 °F    
Average Humidity 52    
Maximum Humidity 82    
Minimum Humidity 22    
Precipitation  
Precipitation 0.00 in 0.05 in 0.55 in (1944)
Month to date precipitation 2.67 1.46  
Year to date precipitation 7.60 5.83  
Snow  
Snow 0.00 in - - ()
Month to date snowfall 0.1  
Since 1 July snowfall 53.0  
Snow Depth 0.00 in    
Sea Level Pressure  
Sea Level Pressure 29.98 in    
Wind  
Wind Speed 10 mph (ESE)    
Max Wind Speed 28 mph    
Max Gust Speed 37 mph    
Visibility 10 miles    
Events      
T = Trace of Precipitation, MM = Missing Value Source: NWS Daily Summary

Daily Weather History Graph

Daily Weather History Graph

Search for Another Location

Airport or City:

Trip Planner

Search our weather history database for the weather conditions in past years. The results will help you decide how hot, cold, wet, or windy it might be!

Date:

Astronomy

May. 31, 2011 Rise Set
Actual Time 5:54 AM MDT 9:01 PM MDT
Civil Twilight 5:20 AM MDT 9:35 PM MDT
Nautical Twilight 4:36 AM MDT 10:20 PM MDT
Astronomical Twilight 3:44 AM MDT 11:12 PM MDT
Moon 4:52 AM MDT (5/31) 8:17 PM MDT (5/31)
Length of Visible Light 16h 15m
Length of Day
15h 06m
Waning Crescent, 1% of the Moon is Illuminated
May 31
Waning Crescent
Jun 1
New
Jun 8
First Quarter
Jun 15
Full
Jun 23
Last Quarter

Hourly Weather History & Observations

Time (MDT) Temp. Windchill Dew Point Humidity Pressure Visibility Wind Dir Wind Speed Gust Speed Precip Events Conditions
12:53 AM 43.0 °F 36.8 °F 37.0 °F 80% 30.05 in 10.0 mi South 11.5 mph - N/A   Clear
1:53 AM 44.1 °F 42.5 °F 37.0 °F 76% 30.05 in 10.0 mi Variable 3.5 mph - N/A   Clear
2:53 AM 44.1 °F - 37.0 °F 76% 30.04 in 10.0 mi Calm Calm - N/A   Clear
3:53 AM 44.1 °F 42.5 °F 36.0 °F 73% 30.05 in 10.0 mi ENE 3.5 mph - N/A   Clear
4:53 AM 44.1 °F 38.6 °F 37.0 °F 76% 30.05 in 10.0 mi ENE 10.4 mph - N/A   Clear
5:53 AM 46.0 °F 41.0 °F 36.0 °F 68% 30.04 in 10.0 mi NE 10.4 mph - N/A   Mostly Cloudy
6:53 AM 51.1 °F - 34.0 °F 52% 30.03 in 10.0 mi Variable 5.8 mph - N/A   Clear
7:53 AM 48.0 °F - 37.0 °F 66% 30.05 in 10.0 mi NNE 11.5 mph - N/A   Overcast
8:53 AM 55.0 °F - 37.9 °F 53% 30.06 in 10.0 mi Variable 3.5 mph - N/A   Clear
9:53 AM 57.0 °F - 37.9 °F 49% 30.06 in 10.0 mi SSW 6.9 mph - N/A   Clear
10:53 AM 57.0 °F - 37.9 °F 49% 30.06 in 10.0 mi ENE 9.2 mph - N/A   Scattered Clouds
11:53 AM 61.0 °F - 37.9 °F 42% 30.04 in 10.0 mi ENE 9.2 mph - N/A   Partly Cloudy
12:53 PM 63.0 °F - 36.0 °F 37% 30.01 in 10.0 mi ESE 6.9 mph - N/A   Partly Cloudy
1:53 PM 66.0 °F - 37.9 °F 36% 29.97 in 10.0 mi SSE 13.8 mph 23.0 mph N/A   Scattered Clouds
2:53 PM 66.9 °F - 36.0 °F 32% 29.94 in 10.0 mi South 19.6 mph 29.9 mph N/A   Scattered Clouds
3:53 PM 68.0 °F - 35.1 °F 30% 29.93 in 10.0 mi SSE 20.7 mph 31.1 mph N/A   Partly Cloudy
4:53 PM 68.0 °F - 34.0 °F 28% 29.91 in 10.0 mi South 17.3 mph 28.8 mph N/A   Partly Cloudy
5:53 PM 69.1 °F - 33.1 °F 26% 29.90 in 10.0 mi South 23.0 mph 28.8 mph N/A   Scattered Clouds
6:53 PM 68.0 °F - 28.9 °F 23% 29.87 in 10.0 mi South 23.0 mph - N/A   Clear
7:53 PM 64.0 °F - 32.0 °F 30% 29.89 in 10.0 mi SSW 10.4 mph - N/A   Clear
8:53 PM 57.9 °F - 37.0 °F 46% 29.87 in 10.0 mi ESE 6.9 mph - N/A   Clear
9:53 PM 55.0 °F - 35.1 °F 47% 29.87 in 10.0 mi ENE 8.1 mph - N/A   Clear
10:53 PM 57.0 °F - 32.0 °F 39% 29.86 in 10.0 mi East 5.8 mph - N/A   Clear
11:53 PM 50.0 °F - 34.0 °F 54% 29.84 in 10.0 mi Calm Calm - N/A   Clear